Regional Weather Roundup
Issued by NWS

Home | Current Version | Previous Version | Graphics & Text | Print | Product List | Glossary On
Versions: 1 2 3 4 5 6 7 8 9 10 11 12 13 14 15 16 17 18 19 20 21 22 23 24 25 26 27 28 29 30 31 32 33 34 35 36 37 38 39 40 41 42 43 44 45 46 47 48 49 50
597
ASUS45 KBOU 300407
RWRCO

WEATHER ROUNDUP FOR COLORADO
NATIONAL WEATHER SERVICE DENVER/BOULDER CO
1000 PM MDT WED MAR 29 2017

NOTE: "FAIR" INDICATES FEW OR NO CLOUDS BELOW 12000 FEET WITH NO
SIGNIFICANT WEATHER AND/OR OBSTRUCTIONS TO VISIBILITY.

COZ001>005-013-030-031-300500-
...NORTHWEST COLORADO...

CITY           SKY/WX    TMP DP  RH WIND       PRES   REMARKS
CRAIG          FAIR      36  26  67 CALM      30.06R
HAYDEN         FAIR      39  23  52 CALM      30.07S
MEEKER         FAIR      34  29  82 NE5       30.09R WCI  30
MOUNT WERNER   NOT AVBL
STEAMBOAT SPGS FAIR      36  27  72 SE6       30.08R
WALDEN         NOT AVBL
$$

COZ006>008-011-300500-
...WEST CENTRAL VALLEYS...

CITY           SKY/WX    TMP DP  RH WIND       PRES   REMARKS
GRAND JUNCTION FAIR      46  29  51 NW6       30.03R
MONTROSE       FAIR      43  32  65 SE9       30.09R
EAGLE          CLEAR     41  27  56 E6        30.10R
RIFLE          FAIR      42  26  53 S8        30.06R
DELTA          FAIR      49  26  39 E3        30.06R
NUCLA          FAIR      45  23  42 E6        30.11R
$$

COZ017>023-064>068-300500-
...SOUTHWEST COLORADO...

CITY           SKY/WX    TMP DP  RH WIND       PRES   REMARKS
DURANGO        FAIR      46  13  26 NW5       30.03R
CORTEZ         FAIR      47  24  40 N5        30.08R
PAGOSA SPRINGS FAIR      40  20  45 NW3       30.07S
TELLURIDE      FAIR      34  17  51 CALM      30.18R
WOLF CREEK PAS FAIR      27   9  46 CALM      30.24R
$$

COZ009-010-012-014-032>034-037-058>063-300500-
...CENTRAL COLORADO...

CITY           SKY/WX    TMP DP  RH WIND       PRES   REMARKS
ASPEN          FAIR      33  24  69 SW7       30.10R WCI  27
BUENA VISTA    FAIR      34  19  53 NW5       30.06R WCI  30
COPPER MTN     MOCLDY    27  16  63 MISG      30.17R
BERTHOUD PASS  FAIR      16   5  62 NW26      30.12F HAZE    WCI  -3
COTTONWOOD PAS FAIR      36  19  51 SW20      30.11S
GUNNISON       FAIR      39  25  57 N3        30.11R
KREMMLING      FAIR      39  28  65 N5        30.10S
LEADVILLE      FAIR      26  15  63 NE9       30.11R WCI  17
MONARCH PASS   FAIR      23  19  86 W24       30.27S WCI   7
SALIDA         FAIR      46  19  33 W6        30.11F
SUNLIGHT       FAIR      27  21  80 W7        30.23R WCI  19
WILKERSON PASS FAIR      28  12  50 NW9G16    30.14F WCI  20
$$

COZ069>075-300500-
...SAN LUIS VALLEY/SANGRE DE CRISTO MOUNTAINS...

CITY           SKY/WX    TMP DP  RH WIND       PRES   REMARKS
ALAMOSA        FAIR      39  23  52 NW8       30.05R
LA VETA PASS   NOT AVBL
SAGUACHE       FAIR      37  23  56 NW9       30.07S
$$

COZ035-036-038>040-300500-
...NORTHERN COLORADO FRONT RANGE...

CITY           SKY/WX    TMP DP  RH WIND       PRES   REMARKS
DENVER INTL AP FAIR      36  32  85 S10       29.97S
DMNS CITY PARK   N/A     46  33  60 S3        29.98S
AURORA         PTCLDY    38  34  85 S10       29.98F
FRONT RANGE AP NOT AVBL
ERIE MUNI ARPT FAIR      43  33  68 CALM        N/A
BOULDER MUN AP FAIR      46  32  57 CALM      29.97S
CENTENNIAL     FAIR      41  33  73 S9        29.98F
BROOMFIELD     PTCLDY    46  32  57 SE3       29.98F
FORT COLLINS   FAIR      45  32  60 E9        29.98R
LONGMONT       FAIR      46  32  59 CALM      29.99S
$$

COZ041-046-047-076>085-087-088-300500-
...PIKES PEAK/PALMER DIVIDE AND SOUTHERN FOOTHILLS...

CITY           SKY/WX    TMP DP  RH WIND       PRES   REMARKS
COLO. SPRINGS  FAIR      40  28  62 S7        30.02S
A. F. ACADEMY  NOT AVBL
SCHRIEVER AFB  FAIR      40  32  72 N7        30.01S
ELLICOTT       FAIR     N/A N/A N/A CALM      30.00S
FALCON         FAIR      36  30  80 NW3       30.02S
FORT CARSON    MOCLDY    42  32  65 S13       30.01R
LIMON          FAIR      31  30  96 CALM      29.99S
MONUMENT HILL  FAIR      32  30  93 S5        30.03F WCI  27
TRINIDAD       FAIR      37  32  82 W10       30.03S
$$

COZ042>045-048>051-090-091-300500-
...NORTHEAST COLORADO...

CITY           SKY/WX    TMP DP  RH WIND       PRES   REMARKS
GREELEY ARPT   NOT AVBL
AKRON          FAIR      36  33  89 SE5       29.95F
BURLINGTON     FAIR      35  34  96 NW7       29.94S WCI  29
WRAY           NOT AVBL
STERLING       FAIR      36  36 100 CALM      29.95F
HOLYOKE        FAIR      37  36  93 NW6       29.95S
FORT MORGAN    FAIR      37  33  87 CALM      29.98R
$$

COZ086-089-092>099-300500-
...SOUTHEAST COLORADO...

CITY           SKY/WX    TMP DP  RH WIND       PRES   REMARKS
PUEBLO         FAIR      44  36  73 E6        29.99F
LA JUNTA       FAIR      41  35  79 W8        29.99R
LAMAR          FAIR      39  35  86 W8        29.94F
SPRINGFIELD      N/A     35  34  96 NW8       29.95S WCI  29
$$




USA.gov is the U.S. government's official web portal to all federal, state and local government web resources and services.